sat.trackr.live / text

‹ back to catalog

STARLINK-6118

NORAD 57106 · 2023-090F

PAYLOAD ACTIVE UNKNOWN

§ Identity

Operator
Country
US
Launch date
2023-06-23
Launch site
AFETR
Launch vehicle
Mass (kg)
RCS (m²)

Purposes: comms

External: N2YO · Heavens-Above · Gunter

§ Orbital elements

Epoch: 2026-05-24T20:57:56.065248Z

Period
94.32 min
Inclination
43.0024°
Eccentricity
0.0001486
Mean motion
15.26739822 rev/d
Perigee alt
484.5 km
Apogee alt
486.6 km
Semi-major
6,863.7 km
B*
-2.6345e-5
RAAN
211.3126°
Arg perigee
278.0931°
Mean anomaly
81.9751°
Rev number
16,198

§ Raw data

STARLINK-61181 57106U 23090F   26144.87356557 -.00000966  00000+0 -26345-4 0  99922 57106  43.0024 211.3126 0001486 278.0931  81.9751 15.26739822161980

JSON: /api/v1/satellites/57106 · /tle

For live sub-satellite position, see the globe view (requires WebGL).

§ Visibility from observer

Set your observer location to see the next 7 days of passes ≥ 10°. The values pass through the URL so the page stays shareable.

No JS? Fill the form by hand. The geolocation button needs JavaScript.